NOAA 16 DEB, 41256

Orbit data source: Space-Track

NOAA 16 DEB, 41256 is space debris in SSO originally from a launch on Thu, 21 Sep 2000 UTC launched from the Air Force Western Test Range (AFWTR). Debris objects in space refer to the collection of defunct objects orbiting the Earth. Examples of debris include non-operational satellites, rocket bodies, and fragments generated from explosions, collisions, or faulty payload assembly.

Loading next visibility...
Identifier
41256, 2000-055FG
Orbit
SSO
Country
Flag of USUS
Related business
Manufacturer
Unknown
Mission
Spacecraft
Bus & Motor
Unknown
Mass
Unknown
Launch date (UTC)
2000-09-21 (25 years ago)
Launch vehicle
Unknown
Launch site
Air Force Western Test Range (AFWTR)
Object type
Payload
Rocket body
Debris
Shape & HBR
Unknown shape, 0.1 m
Radar Cross Section
Small (<0.1 m²)

Expand to show TLE details & history
Last TLE update: 17 hours ago

TLE from 17 hours ago
0 NOAA 16 DEB
1 41256U 00055FG  26036.55417887  .00022248  00000-0  52052-2 0  9994
2 41256  99.0919 293.2473 0011313 183.4255 176.6864 14.54567611525026
Epoch: 2026-02-05T13:18Z
TLE epoch observation values (Epoch: 2026-02-05T13:18:01.054Z)
Latitude
0.00002°
Longitude
-41.96184°
Altitude
721.726 km
Speed
7.49 km/s
True Right ascension
19h 32m 59s
True Declination
0° 00' 00"
Sunlit
Object was in daylight at epoch
Visualization orbit readout
Latitude
Unknown
Longitude
Unknown
Altitude
Unknown
Speed
Unknown
Apparent Right ascension
Unknown
Apparent Declination
Unknown
Sunlit
N/A
Visualization observer readout
Local Sidereal Time
08:35:41
Azimuth
Unknown
Elevation
Unknown
Doppler factor
Unknown
Orbital elements
Apogee altitude
715.917 km
Perigee altitude
699.884 km
Semi-major axis
7,086.038 km
Eccentricity
0.00113
Inclination
99.0919°
RAAN
293.2473°
Arg. of periapsis
183.4255°
True anomaly
176.69388°
Mean anomaly
176.6864°
Eccentric anomaly
176.69014°
Mean motion
3.63863 °/min
Orbital period
98.94 mins
BSTAR
0.0052052
Loading maneuver chart data...
Computing Atmospheric mass density...
Loading historical data...
Loading historical data...
Loading historical data...
Loading historical data...
Loading historical data...
Loading historical data...
Loading historical data...

Documentation

Showing up to 5 results
|